FW8707 Weather Reports


Display with metric or nautical units.
time (UTC)temp
F
wind
direction
speed
MPH
gust
MPH
rain 1hr
in
rain 24hr
in
rain mn
in
humidity
%
barometer
mb
20260504214520 64 11 1.0 4.0 0.00 0.00 0.00 39 1009.2
20260504214009 64 281 0.0 4.0 0.00 0.00 0.00 40 1009.2
20260504213509 64 286 2.0 4.0 0.00 0.00 0.00 40 1009.1
20260504213035 64 285 0.0 3.0 0.00 0.00 0.00 40 1009.0
20260504212510 63 287 0.0 3.0 0.00 0.00 0.00 40 1009.2
20260504212005 63 283 0.0 5.0 0.00 0.00 0.00 42 1009.1
20260504211507 63 283 1.0 7.0 0.00 0.00 0.00 41 1009.2
20260504211004 63 283 1.0 8.0 0.00 0.00 0.00 41 1009.1
20260504210506 63 280 2.0 10.0 0.00 0.00 0.00 40 1009.2
20260504210015 64 279 4.0 13.0 0.00 0.00 0.00 39 1009.3
20260504205507 64 320 4.0 17.0 0.00 0.00 0.00 38 1009.1
20260504205007 65 27 8.0 25.0 0.00 0.00 0.00 37 1009.1
20260504204517 64 13 7.0 25.0 0.00 0.00 0.00 37 1009.3
20260504204008 65 333 8.0 14.0 0.00 0.00 0.00 36 1009.2
20260504203513 65 259 7.0 13.0 0.00 0.00 0.00 36 1009.2
20260504203022 65 68 4.0 15.0 0.00 0.00 0.00 35 1008.8
20260504202509 64 25 2.0 15.0 0.00 0.00 0.00 37 1008.7
20260504202010 63 287 6.0 16.0 0.00 0.00 0.00 36 1008.6
20260504201527 63 284 4.0 18.0 0.00 0.00 0.00 37 1008.7
20260504201009 63 283 8.0 20.0 0.00 0.00 0.00 36 1008.9
20260504200503 63 281 8.0 20.0 0.00 0.00 0.00 36 1008.7
20260504200010 63 279 5.0 16.0 0.00 0.00 0.00 35 1008.8
20260504195506 63 279 6.0 18.0 0.00 0.00 0.00 34 1008.8
20260504195007 64 283 8.0 18.0 0.00 0.00 0.00 32 1008.7
20260504194520 66 256 6.0 17.0 0.00 0.00 0.00 29 1008.6
20260504194009 67 71 2.0 15.0 0.00 0.00 0.00 25 1008.9
20260504193020 67 300 1.0 30.0 0.00 0.00 0.00 25 1008.1
20260504192508 68 289 7.0 30.0 0.00 0.00 0.00 26 1008.5
20260504192009 68 254 0.0 14.0 0.00 0.00 0.00 25 1008.2
20260504191527 68 125 4.0 14.0 0.00 0.00 0.00 26 1007.9
20260504191009 68 270 6.0 18.0 0.00 0.00 0.00 28 1008.2
20260504190510 69 270 6.0 18.0 0.00 0.00 0.00 27 1007.9
20260504190028 69 322 5.0 15.0 0.00 0.00 0.00 26 1008.0
20260504185509 69 279 8.0 16.0 0.00 0.00 0.00 26 1008.1
20260504185007 69 275 9.0 16.0 0.00 0.00 0.00 26 1008.0
20260504184529 69 275 6.0 16.0 0.00 0.00 0.00 27 1008.1
20260504184010 70 292 6.0 14.0 0.00 0.00 0.00 27 1008.0
20260504183508 70 162 7.0 14.0 0.00 0.00 0.00 25 1008.1
20260504183019 70 292 4.0 12.0 0.00 0.00 0.00 27 1008.1
20260504182512 70 283 7.0 12.0 0.00 0.00 0.00 27 1008.1
20260504182010 70 282 4.0 9.0 0.00 0.00 0.00 26 1008.0
20260504181523 70 296 4.0 10.0 0.00 0.00 0.00 27 1008.1
20260504181010 70 296 2.0 10.0 0.00 0.00 0.00 26 1008.1
20260504180512 70 270 3.0 10.0 0.00 0.00 0.00 27 1008.2
20260504180032 70 99 2.0 6.0 0.00 0.00 0.00 26 1008.1
20260504175511 70 285 1.0 7.0 0.00 0.00 0.00 25 1008.2
20260504175010 70 281 2.0 7.0 0.00 0.00 0.00 26 1008.3
20260504174526 70 293 1.0 6.0 0.00 0.00 0.00 25 1008.3
20260504174007 70 291 2.0 7.0 0.00 0.00 0.00 26 1008.4
20260504173506 70 280 1.0 7.0 0.00 0.00 0.00 26 1008.5
20260504173017 70 279 2.0 7.0 0.00 0.00 0.00 26 1008.5
20260504172507 70 287 0.0 6.0 0.00 0.00 0.00 27 1008.5
20260504172008 69 279 1.0 9.0 0.00 0.00 0.00 26 1008.5
20260504171519 70 282 1.0 9.0 0.00 0.00 0.00 26 1008.5
20260504171011 69 301 2.0 8.0 0.00 0.00 0.00 26 1008.5
20260504170507 69 293 1.0 8.0 0.00 0.00 0.00 26 1008.5
20260504151008 62 149 0.0 2.0 0.00 0.00 0.00 35 1008.8
20260504150511 61 181 0.0 3.0 0.00 0.00 0.00 37 1008.8
20260504141013 52 270 0.0 3.0 0.00 0.00 0.00 43 1009.1
20260504140509 51 270 0.0 3.0 0.00 0.00 0.00 44 1009.1
20260504130510 47 275 0.0 5.0 0.00 0.00 0.00 46 1009.3
20260504110508 47 279 2.0 5.0 0.00 0.00 0.00 46 1009.5
20260504100510 47 275 1.0 7.0 0.00 0.00 0.00 46 1009.8
20260504082007 49 275 1.0 7.0 0.00 0.00 0.00 44 1010.5
20260504081517 49 275 2.0 7.0 0.00 0.00 0.00 45 1010.6
20260504081010 49 275 1.0 5.0 0.00 0.00 0.00 44 1010.7
20260504080508 49 275 1.0 4.0 0.00 0.00 0.00 44 1010.7
20260504050510 58 270 0.0 2.0 0.00 0.00 0.00 33 1011.7
20260504045507 59 270 0.0 0.0 0.00 0.00 0.00 31 1011.7
20260504045010 59 270 0.0 2.0 0.00 0.00 0.00 30 1011.7
20260504044534 60 270 0.0 2.0 0.00 0.00 0.00 30 1011.6
20260504044014 60 270 0.0 2.0 0.00 0.00 0.00 29 1011.7
20260504043513 60 270 0.0 2.0 0.00 0.00 0.00 28 1011.7
20260504043022 61 270 0.0 2.0 0.00 0.00 0.00 28 1011.8
20260504042510 61 270 0.0 3.0 0.00 0.00 0.00 28 1011.7
20260504042009 61 270 0.0 4.0 0.00 0.00 0.00 28 1011.7
20260504041526 61 270 0.0 9.0 0.00 0.00 0.00 28 1011.7
20260504041011 61 270 2.0 9.0 0.00 0.00 0.00 28 1011.7
20260504040510 61 270 2.0 8.0 0.00 0.00 0.00 29 1011.7
20260504040027 61 270 1.0 8.0 0.00 0.00 0.00 28 1011.6
20260504035510 60 270 0.0 5.0 0.00 0.00 0.00 28 1011.6
20260504035010 60 270 0.0 3.0 0.00 0.00 0.00 28 1011.5
20260504034529 61 270 0.0 2.0 0.00 0.00 0.00 29 1011.5
20260504034007 61 279 0.0 4.0 0.00 0.00 0.00 28 1011.3
20260504033507 61 279 0.0 4.0 0.00 0.00 0.00 28 1011.3
20260504033021 61 270 1.0 4.0 0.00 0.00 0.00 29 1011.3
20260504032506 62 294 1.0 7.0 0.00 0.00 0.00 29 1011.1
20260504032009 62 270 2.0 7.0 0.00 0.00 0.00 28 1011.0
20260504031524 62 293 2.0 5.0 0.00 0.00 0.00 28 1011.0
20260504031010 62 270 3.0 5.0 0.00 0.00 0.00 28 1010.9
20260504030503 62 270 0.0 4.0 0.00 0.00 0.00 28 1010.9
20260504030010 62 270 0.0 3.0 0.00 0.00 0.00 28 1010.9
20260504025504 63 270 0.0 2.0 0.00 0.00 0.00 28 1010.9
20260504025007 63 270 0.0 0.0 0.00 0.00 0.00 29 1010.8
20260504024514 64 171 0.0 0.0 0.00 0.00 0.00 29 1010.8
20260504024006 64 270 0.0 0.0 0.00 0.00 0.00 30 1010.8
20260504023506 64 270 0.0 0.0 0.00 0.00 0.00 27 1010.8
20260504023019 65 270 0.0 0.0 0.00 0.00 0.00 28 1010.7
20260504022506 66 270 0.0 0.0 0.00 0.00 0.00 29 1010.7
20260504022008 66 270 0.0 1.0 0.00 0.00 0.00 28 1010.7
20260504021525 67 270 0.0 1.0 0.00 0.00 0.00 26 1010.6
20260504021007 67 287 0.0 1.0 0.00 0.00 0.00 26 1010.6
20260504020508 68 207 0.0 3.0 0.00 0.00 0.00 25 1010.5
20260504020028 68 302 0.0 3.0 0.00 0.00 0.00 25 1010.5
20260504015510 68 290 0.0 3.0 0.00 0.00 0.00 25 1010.5
20260504015006 68 279 0.0 4.0 0.00 0.00 0.00 26 1010.4
20260504014508 69 204 0.0 4.0 0.00 0.00 0.00 25 1010.3
20260504014008 69 290 1.0 4.0 0.00 0.00 0.00 25 1010.3
20260504013507 69 138 0.0 5.0 0.00 0.00 0.00 25 1010.4
20260504013026 69 289 2.0 5.0 0.00 0.00 0.00 25 1010.3
20260504012507 69 73 0.0 3.0 0.00 0.00 0.00 25 1010.3
20260504012011 69 119 1.0 3.0 0.00 0.00 0.00 25 1010.4
20260504011518 70 87 0.0 3.0 0.00 0.00 0.00 25 1010.4
20260504011012 70 23 0.0 4.0 0.00 0.00 0.00 25 1010.4
20260504010507 70 287 0.0 7.0 0.00 0.00 0.00 25 1010.5
20260504010023 70 294 2.0 7.0 0.00 0.00 0.00 23 1010.6
20260504005510 70 288 0.0 4.0 0.00 0.00 0.00 25 1010.6
20260504005011 70 285 0.0 2.0 0.00 0.00 0.00 25 1010.6
20260504004526 70 270 0.0 2.0 0.00 0.00 0.00 25 1010.7
20260504004003 70 279 0.0 4.0 0.00 0.00 0.00 26 1010.7
20260504003507 70 279 0.0 5.0 0.00 0.00 0.00 25 1010.6
20260504003026 70 279 0.0 7.0 0.00 0.00 0.00 24 1010.6
20260504002508 70 285 0.0 7.0 0.00 0.00 0.00 23 1010.7
20260504002007 70 296 1.0 4.0 0.00 0.00 0.00 22 1010.7
20260504001520 71 239 0.0 2.0 0.00 0.00 0.00 22 1010.8
20260504001007 71 224 0.0 6.0 0.00 0.00 0.00 20 1010.8
20260504000507 71 323 0.0 6.0 0.00 0.00 0.00 19 1010.8
20260504000023 71 325 0.0 8.0 0.00 0.00 0.00 19 1010.7
20260503235507 71 197 1.0 8.0 0.00 0.00 0.00 20 1010.7
20260503235008 71 294 2.0 7.0 0.00 0.00 0.00 20 1010.7
20260503234524 71 293 0.0 4.0 0.00 0.00 0.00 21 1010.8
20260503234010 70 90 0.0 6.0 0.00 0.00 0.00 21 1010.9
20260503233508 70 128 1.0 10.0 0.00 0.00 0.00 22 1010.9
20260503233035 70 150 3.0 10.0 0.00 0.00 0.00 20 1011.0
20260503232506 71 129 0.0 3.0 0.00 0.00 0.00 23 1011.0
20260503232007 71 323 0.0 3.0 0.00 0.00 0.00 23 1011.0
20260503231516 71 148 0.0 2.0 0.00 0.00 0.00 22 1011.0
20260503231008 71 87 0.0 2.0 0.00 0.00 0.00 22 1010.9
20260503230509 71 127 0.0 4.0 0.00 0.00 0.00 22 1011.0
20260503230024 71 312 0.0 4.0 0.00 0.00 0.00 22 1011.0
20260503225507 71 304 0.0 9.0 0.00 0.00 0.00 22 1011.1
20260503225014 71 18 3.0 9.0 0.00 0.00 0.00 22 1011.2
20260503224528 71 109 1.0 8.0 0.00 0.00 0.00 23 1011.2
20260503224010 71 109 1.0 8.0 0.00 0.00 0.00 22 1011.2
20260503223510 72 146 3.0 8.0 0.00 0.00 0.00 22 1011.2
20260503223027 72 137 1.0 7.0 0.00 0.00 0.00 20 1011.2
20260503222510 73 154 1.0 6.0 0.00 0.00 0.00 20 1011.3
20260503222010 74 131 0.0 6.0 0.00 0.00 0.00 20 1011.3
20260503221527 74 144 1.0 4.0 0.00 0.00 0.00 17 1011.3
20260503221008 74 315 0.0 8.0 0.00 0.00 0.00 14 1011.4
20260503220508 74 262 3.0 10.0 0.00 0.00 0.00 14 1011.3
20260503220022 74 328 4.0 10.0 0.00 0.00 0.00 14 1011.4
20260503215508 75 281 4.0 11.0 0.00 0.00 0.00 14 1011.3
20260503215010 75 345 2.0 11.0 0.00 0.00 0.00 14 1011.3